Location: Unspecified
(0.0000°N, 0.0000°E)
Time: 21:58:12
(UTC+00:00)

Tiangong 1 - Pass Details

Date: 24 May 2017
Orbit: 323 x 350 km, 42.8° (Epoch: 24 May)

Event Time Altitude Azimuth Distance (km) Brightness Sun altitude
Rises 19:15:51 0° 295° (WNW) 2,107 6.5 -18.4°
Reaches altitude 10° 19:18:08 10° 278° (W) 1,266 4.8 -18.9°
Maximum altitude 19:20:24 21° 225° (SW) 816 2.9 -19.4°
Enters shadow 19:20:47 20° 213° (SSW) 832 2.8 -19.5°
